This demonstration page uses our WeatherBlox Daily Observations layout. Learn more.

Left ArrowRight Arrow

Hourly Observations for June 15, 2019

Temp ( °F °C ) Dew Point ( °F °C ) Humidity (%) Winds ( mph kmh ) Pressure ( in mb ) Visibility ( mi km ) Precip ( " mm )
12:51 am 00:51 Clear 80 26.7 21 -6.1 11 11 NW 10 17 29.69 1005 10 16 0.00 0.00
1:51 am 01:51 Clear 78 25.6 21 -6.1 12 12 NNW 10 17 29.70 1006 10 16 0.00 0.00
2:51 am 02:51 Clear 75 23.9 22 -5.6 14 14 N 9 15 29.70 1006 10 16 0.00 0.00
3:51 am 03:51 Clear 74 23.3 24 -4.4 15 15 NW 7 11 29.72 1006 10 16 0.00 0.00
4:51 am 04:51 Clear 66 18.9 21 -6.1 18 18 SSE 3 6 29.75 1008 10 16 0.00 0.00
5:51 am 05:51 Sunny 67 19.4 20 -6.7 17 17 ESE 5 7 29.77 1008 10 16 0.00 0.00
6:51 am 06:51 Sunny 73 22.8 18 -7.8 12 12 SSE 6 9 29.78 1009 10 16 0.00 0.00
7:51 am 07:51 Sunny 78 25.6 20 -6.7 11 11 SE 5 7 29.80 1009 10 16 0.00 0.00
8:51 am 08:51 Sunny 83 28.3 23 -5 11 11 Calm 29.80 1009 10 16 0.00 0.00
9:51 am 09:51 Sunny 87 30.6 23 -5 9 9 WSW 7 11 29.79 1009 10 16 0.00 0.00
10:51 am 10:51 Sunny 91 32.8 24 -4.4 9 9 undefined N/A 29.78 1008 10 16 0.00 0.00
11:51 am 11:51 Sunny 92 33.3 19 -7.2 7 7 SW 10 17 29.75 1008 10 16 0.00 0.00
12:51 pm 12:51 Sunny 96 35.6 14 -10 5 5 NNW 12 19 29.73 1007 10 16 0.00 0.00
1:51 pm 13:51 Mostly Sunny 96 35.6 16 -8.9 5 5 VRB 5 7 29.70 1006 10 16 0.00 0.00
2:51 pm 14:51 Mostly Sunny 98 36.7 17 -8.3 5 5 NW 13 20 29.68 1005 10 16 0.00 0.00
3:51 pm 15:51 Mostly Sunny 100 37.8 12 -11.1 4 4 WNW 15 24 29.66 1004 10 16 0.00 0.00
4:51 pm 16:51 Mostly Sunny 97 36.1 10 -12.2 4 4 WNW 15 24 29.66 1005 10 16 0.00 0.00
5:51 pm 17:51 Mostly Sunny 96 35.6 11 -11.7 4 4 WNW 9 15 29.65 1004 10 16 0.00 0.00
6:51 pm 18:51 Mostly Sunny 93 33.9 15 -9.4 6 6 WNW 17 28 29.66 1005 10 16 0.00 0.00
7:51 pm 19:51 Clear 89 31.7 18 -7.8 7 7 WNW 13 20 29.68 1005 10 16 0.00 0.00
8:51 pm 20:51 Clear 80 26.7 17 -8.3 9 9 WNW 9 15 29.71 1006 10 16 0.00 0.00
9:51 pm 21:51 Clear 81 27.2 19 -7.2 10 10 WNW 12 19 29.73 1007 10 16 0.00 0.00
10:51 pm 22:51 Clear 78 25.6 21 -6.1 12 12 NW 10 17 29.72 1007 10 16 0.00 0.00
11:51 pm 23:51 Clear 77 25 21 -6.1 12 12 WNW 10 17 29.71 1006 10 16 0.00 0.00

Powered by AerisWeather